Tracking 19246 objects as of 20-Aug-2018
HD Live streaming from Space Station
objects crossing your sky now

CZ-4C R/B

Track CZ-4C R/B now!
10-day predictions
CZ-4C R/B is classified as:


NORAD ID: 39211
Int'l Code: 2013-037D
Perigee: 473.2 km
Apogee: 645.1 km
Inclination: 97.9 °
Period: 95.7 minutes
Semi major axis: 6930 km
RCS: Unknown
Launch date: July 19, 2013
Source: People's Republic of China (PRC)
Launch site: Taiyaun Space Center, China (TSC)

Note: This is a ROCKET BODY
aabbcc
Your satellite tracking list
Your tracking list is empty




NASA's NSSDC Master Catalog

Two Line Element Set (TLE):
1 39211U 13037D   18231.86003626 -.00000341 +00000-0 -15363-4 0  9998
2 39211 097.9199 332.3877 0124026 296.6698 062.1870 15.04830339278722
Source of the keplerian elements: AFSPC